Погода в Гусиноозерске

Россия / Республика Бурятия     51°17′07″N   106°31′45″E
темп.,
°C
ветер,
м/с
пор.,
м/с
влажн.,
%
обл.,
%
осадки,
мм/ч
давл.,
гПа
погр.,
м
11 мая, вт
вт1123:00+3ссз6128024 0.0 1014442
02:00+3сз71485100 0.4 1014508
05:00+3ссз61286100 0.5 1015478
08:00+4сз6107858 0.5 1016468
11:00+6ссз7106679 0.0 1016656
14:00+9сз7105514 0.0 1015920
17:00+9сз7105435 0.2 1014785
20:00+7зсз37645 0.2 1015161
12 мая, ср
ср1223:00+4з22712 0.0 101613
02:00+3з22765 0.0 101613
05:00+2з22755 0.0 101511
08:00+5юз23641 0.0 1014135
11:00+8з355191 0.0 10121087
14:00+11ссз89468 0.1 10101156
17:00+8ссз6959100 0.0 1011625
20:00+6ссз59675 0.1 1013568
13 мая, чт
чт1323:00+4сз5107199 0.0 1015410
02:00+3ссз3673100 0.0 1015259
05:00+1ссз3384100 0.0 101539
08:00+3сз465941 0.1 1016977
11:00+5ссз81040100 0.1 10151437
14:00+6ссз8934100 0.1 10151723
17:00+7ссз793347 0.0 10151440
20:00+5ссз36455 0.0 1016129
14 мая, пт
пт1423:00+2сз22565 0.0 101813
02:00+1зсз22640 0.0 101815
05:000зсз22660 0.0 101812
08:00+3юз22560 0.0 1019207
11:00+5ююз23480 0.0 1018543
14:00+8ююз23390 0.0 1015641
17:00+9ююз13350 0.0 1013626
20:00+7ю11415 0.0 101210
15 мая, сб
сб1523:00+6ююз224210 0.0 101410
02:00+4ююз224738 0.0 101410
05:00+3ююз22518 0.0 101412
08:00+6ююз234881 0.0 1015192
11:00+8ююз0244100 0.0 1015401
14:00+13ссз554213 0.0 1012933
17:00+12ссз784821 0.0 1012669
20:00+8сз2460100 0.0 1014348